Ширвинтос

Литва     55°02′31″N   24°57′11″E
темп.,
°C
ветер,
м/с
пор.,
м/с
влажн.,
%
обл.,
%
осадки,
мм/ч
давл.,
гПа
погр.,
м
27 октября, ср
ср2700:00+7юз51279100 0.1 1016496
03:00+7зюз51297100 2.3 1016487
06:00+8з61079100 0.5 1017772
09:00+7зюз5109478 0.5 1018510
12:00+9зюз61079100 0.0 1018761
15:00+11зюз6107395 0.0 10181026
18:00+10юз71382100 0.0 1016760
21:00+10юз81685100 0.0 1014784
28 октября, чт
чт2800:00+11зюз91685100 0.1 1015993
03:00+11з81589100 0.3 1015907
06:00+11з61393100 0.4 1016654
09:00+11з51098100 0.4 1018579
12:00+11з4897100 0.1 1020581
15:00+11зюз3897100 0.3 1021461
18:00+11зюз389594 0.1 1022330
21:00+10зюз2494100 0.1 102359
29 октября, пт
пт2900:00+9юз349454 0.0 102367
03:00+8ююз35955 0.0 102495
06:00+8ююз37965 0.0 1024138
09:00+7ю38965 0.0 1024166
12:00+12ю59785 0.0 1024378
15:00+14ю596936 0.0 1022569
18:00+11ююв4118412 0.0 1022298
21:00+11ю515855 0.0 1022421
30 октября, сб
сб3000:00+10ю514875 0.0 1022403
03:00+10ююв51490100 0.0 1022377
06:00+9ююв514906 0.0 1021372
09:00+9ююв5148936 0.0 1021388
12:00+12ю6127292 0.0 1021487
15:00+14ю511666 0.0 1020630
18:00+11ю5117753 0.0 1021289
21:00+9ю41283100 0.0 1021265
31 октября, вс
вс3100:00+8ю398961 0.0 1022162
03:00+7ююв37895 0.0 1021123
05:00+6ююв38896 0.0 1020139
08:00+6ююв4108835 0.0 1020205
11:00+10ююв510695 0.0 1018391
14:00+12ююв6116573 0.0 1016532
17:00+10ююв71566100 0.0 1015532
20:00+10ююв81862100 0.0 1014605